#timestamp,LO_Frequency,Hit,StdDev 
1527177615.5,286046998.6,N
1527177635.4,286046998.9,N
1527177655.2,286046998.7,N
1527177675.0,286046998.4,N
1527177675.9,286046998.4,N
1527177695.8,286046998.8,N
1527177715.6,286046996.7,N
1527177735.4,286046996.5,N
1527177755.3,286046999.1,N
1527177775.1,286046997.1,N
1527177795.9,286046996.7,N
1527177815.7,286046997.8,N
1527177835.5,286046996.9,N
1527177855.4,286046999.5,N
1527177875.2,286046999.0,N
1527177895.0,286046999.5,N
1527177896.0,286046999.5,N
1527177915.8,286046997.6,N
1527177935.6,286046997.8,N
1527177955.5,286046997.9,N
1527177975.3,286046994.9,Y
1527177995.1,286046997.7,P
1527178015.9,286046995.0,P
1527178035.7,286046996.0,N
1527178055.6,286046996.0,Y
1527178075.4,286046996.8,P
1527178095.2,286046997.4,P
1527178115.1,286046997.5,P
1527178116.0,286046997.5,Y
1527178135.8,286047000.3,P
1527178155.7,286046998.1,N
1527178175.5,286047002.4,N
1527178195.3,286047004.1,N
1527178215.2,286047004.4,N
1527178235.9,286047001.6,N
1527178255.7,286047000.2,N
1527178275.6,286047002.4,N
1527178295.4,286046999.7,N
1527178315.2,286047002.5,N
1527178335.1,286047004.4,N
1527178336.0,286047004.4,N
1527178355.8,286047001.8,N
1527178375.7,286047001.4,N
1527178395.5,286047002.2,N
1527178415.3,286047002.4,N
1527178435.2,286047002.3,N
1527178455.0,286047002.2,N
1527178455.9,286047002.2,N
1527178475.8,286047002.7,N
1527178495.6,286046999.8,N
1527178515.4,286046999.8,N
1527178535.3,286047001.3,N
1527178555.1,286047002.5,N
1527178575.8,286047003.8,N
1527178595.7,286047003.1,N
1527178615.5,286047003.7,N
1527178635.4,286047005.1,N
1527178655.2,286047003.2,N
1527178675.0,286047003.6,N
1527178675.9,286047003.6,N
1527178695.8,286047004.3,N
1527178715.6,286047001.8,N
1527178735.5,286047001.7,N
1527178755.3,286047002.1,N
1527178775.1,286047001.4,N
1527178795.9,286047002.3,N
1527178815.7,286047002.0,N
1527178835.5,286047003.6,N
1527178855.4,286047005.8,Y
1527178875.2,286047004.3,P
1527178895.1,286047004.4,P
1527178896.0,286047004.4,P
1527178915.8,286047004.4,Y
1527178935.6,286047000.9,P
1527178955.5,286046998.1,N
1527178975.3,286046999.4,N
1527178995.2,286046997.1,N
1527179015.9,286046999.0,N
1527179035.7,286047000.4,N
1527179055.6,286047002.8,N
1527179075.4,286046998.9,N
1527179095.2,286046999.0,N
1527179115.1,286046998.6,N
1527179116.0,286046998.6,N
1527179135.8,286046999.3,N
1527179155.7,286046998.5,N
1527179175.5,286046998.2,N
1527179195.3,286046998.7,N
1527179215.2,286046998.3,N
1527179235.0,286046998.1,N
1527179235.9,286046998.1,N
1527179255.7,286046998.4,N
1527179275.6,286047001.0,N
1527179295.4,286046998.5,N
1527179315.3,286046998.6,N
1527179335.1,286046999.8,N
1527179336.0,286046999.8,N
1527179355.8,286047002.5,N
1527179375.7,286046999.7,N
1527179395.5,286047000.4,N
1527179415.3,286046999.7,N
1527179435.2,286046998.5,N
1527179455.0,286046998.9,N
1527179455.9,286046998.9,N
1527179475.8,286046999.4,N
1527179495.6,286046996.8,N
1527179515.4,286046999.3,N
1527179535.3,286046998.5,N
1527179555.1,286046999.8,N
1527179575.9,286047000.6,N
1527179595.7,286047000.4,N
1527179615.5,286047000.2,N
1527179635.4,286047000.5,N
1527179655.2,286047000.4,N
1527179675.0,286047002.8,N
1527179675.9,286047002.8,N
1527179695.8,286047000.1,N
1527179715.6,286047002.8,N
1527179735.5,286047000.2,N
1527179755.3,286047000.8,N
1527179775.1,286047000.6,N
1527179795.9,286047000.0,N
1527179815.7,286047002.7,N
1527179835.5,286046999.8,N
1527179855.4,286047000.0,N
1527179875.2,286047002.7,N
1527179895.1,286047002.3,N
1527179896.0,286047002.3,N
1527179915.8,286047002.0,N
1527179935.6,286047002.2,N
1527179955.5,286047002.4,N
1527179975.3,286047002.3,N
1527179995.2,286047002.7,N
1527180015.9,286047001.8,N
1527180035.7,286047001.4,N
1527180055.6,286047002.6,N
1527180075.4,286047001.9,N
1527180095.2,286047001.4,N
1527180115.1,286047001.8,N
1527180116.0,286047001.8,N
1527180135.8,286047003.9,Y
1527180155.7,286047002.3,P
1527180175.5,286047000.6,N
1527180195.3,286047000.9,N
1527180215.2,286046998.2,N
1527180235.0,286046998.1,N
1527180235.9,286046998.1,N
1527180255.8,286046999.9,N
1527180275.6,286047000.8,N
1527180295.4,286046998.2,N
1527180315.3,286047001.2,N
1527180335.1,286047000.7,N
1527180355.8,286047001.2,N
1527180375.7,286046999.9,N
1527180395.5,286047000.9,N
1527180415.4,286047000.5,N
1527180435.2,286047000.4,N
1527180455.0,286047000.3,N
1527180455.9,286047000.3,N
1527180475.8,286047000.7,N
1527180495.6,286047000.6,N
1527180515.4,286046999.7,N
1527180535.3,286047002.5,N
1527180555.1,286047004.3,Y
1527180575.9,286047002.5,P
1527180595.7,286047002.4,N
1527180615.5,286047002.5,N
1527180635.4,286047002.8,N
1527180655.2,286047000.6,N
1527180675.1,286046998.9,N
1527180676.0,286046998.9,N
1527180695.8,286046998.1,N
1527180715.6,286047001.1,N
1527180735.5,286047000.2,N
1527180755.3,286047001.0,N
1527180775.2,286047000.8,N
1527180795.9,286047000.2,N
1527180815.7,286047002.8,N
1527180835.6,286046999.8,N
1527180855.4,286046999.8,N
1527180875.2,286047000.1,N
1527180895.1,286047000.6,N
1527180896.0,286047000.6,N
1527180915.8,286047000.7,N
1527180935.7,286047001.2,N
1527180955.5,286047000.3,N
1527180975.3,286047001.9,N
1527180995.2,286047001.5,N
1527181015.0,286047004.1,Y
1527181015.9,286047004.1,P
1527181035.8,286047003.7,N
1527181055.6,286047001.8,N
1527181075.4,286047001.4,N
1527181095.3,286047002.1,N
1527181115.1,286047002.7,N
1527181135.9,286047004.0,Y
1527181155.7,286046999.3,P
1527181175.5,286046998.1,N
1527181195.4,286046998.4,N
